SCP
0 0 0 0 0 0 0 0 0 0 0 0 0 0 0 0 0 0 0 0 0 0 0 0 0 0 0 0 0 0 0 0 0 0 0 0 0 0
0 0 0 0 0 0 0 0 0 0 0 0 0 0 0 0 0 0 0 0 0 0 0 0 0 0 0 0 0 0 0 0 0 0 0 0 0 0
0 0 0 0 0 0 0 0 0 0 0 0 0 0 0 0 0 0 0 0 0 0 0 0 0 0 0 0 0 0 0 0 0 0 0 0 0 0
0 0 0 0 0 0 0 0 0 0 0 0 0 0 0 0 0 0 0 0 0 0 0 0 0 0 0 0 0 0 0 0 0 0 0 0 0 0
0 0 0 0 0 0 0 0 0 0 0 0 0 0 0 0 0 0 0 0 0 0 0 0 0 0 0 0 0 0 0 0 0 0 0 0 0 0
0 0 0 0 0 0 0 0 0 0 0 0 0 0 0 0 0 0 0 0 0 0 0 0 0 0 0 0 0 0 0 0 0 0 0 0 0 0
0 0 0 0 0 0 0 0 0 0 0 0 0 0 0 0 0 0 0 0 0 0 0 0 0 0 0 0 0 0 0 0 0 0 0 0 0 0
0 0 0 0 0 0 0 0 0 0 0 0 0 0 0 0 0 0 0 0 0 0 0 0 0 0 0 0 0 0 0 0 0 0 0 0 0 0
0 0 0 0 0 0 0 0 0 0 0 0 0 0 0 0 0 0 0 0 0 0 0 0 0 0 0 0 0 0 0 0 0 0 0 0 0 0
0 0 0 0 0 0 0 0 0 0 0 0 0 0 0 0 0 0 0 0 0 0 0 0 0 0 0 0 0 0 0 0 0 0 0 0 0 0
0 0 0 0 0 0 0 0 0 0 0 0 0 0 0 0 0 0 0 0 0 0 0 0 0 0 0 0 0 0 0 0 0 0 0 0 0 0
0 0 0 0 0 0 0 0 0 0 0 0 0 0 0 0 0 0 0 0 0 0 0 0 0 0 0 0 0 0 0 0 0 0 0 0 0 0
0 0 0 0 0 0 0 0 0 0 0 0 0 0 0 0 0 0 0 0 0 0 0 0 0 0 0 0 0 0 0 0 0 0 0 0 0 0
0 0 0 0 0 0 0 0 0 0 0 0 0 0 0 0 0 0 0 0 0 0 0 0 0 0 0 0 0 0 0 0 0 0 0 0 0 0
0 0 0 0 0 0 0 0 0 0 0 0 0 0 0 0 0 0 0 0 0 0 0 0 0 0 0 0 0 0 0 0 0 0 0 0 0 0
0 0 0 0 0 0 0 0 0 0 0 0 0 0 0 0 0 0 0 0 0 0 0 0 0 0 0 0 0 0 0 0 0 0 0 0 0 0
0 0 0 0 0 0 0 0 0 0 0 0 0 0 0 0 0 0 0 0 0 0 0 0 0 0 0 0 0 0 0 0 0 0 0 0 0 0
0 0 0 0 0 0 0 0 0 0 0 0 0 0 0 0 0 0 0 0 0 0 0 0 0 0 0 0 0 0 0 0 0 0 0 0 0 0
0 0 0 0 0 0 0 0 0 0 0 0 0 0 0 0 0 0 0 0 0 0 0 0 0 0 0 0 0 0 0 0 0 0 0 0 0 0
0 0 0 0 0 0 0 0 0 0 0 0 0 0 0 0 0 0 0 0 0 0 0 0 0 0 0 0 0 0 0 0 0 0 0 0 0 0
0 0 0 0 0 0 0 0 0 0 0 0 0 0 0 0 0 0 0 0 0 0 0 0 0 0 0 0 0 0 0 0 0 0 0 0 0 0
0 0 0 0 0 0 0 0 0 0 0 0 0 0 0 0 0 0 0 0 0 0 0 0 0 0 0 0 0 0 0 0 0 0 0 -0 0 0
0 0 0 0 0 0 0 0 0 0 0 0 0 0 0 0 0 0 0 0 0 0 0 0 0 0 0 0 0 0 0 0 0 0 0 0 0 0
Wind_Speed_500mb
62 61 64 67 70 70 70 70 65 50 65 70 68 68 67 66 65 59 53 43 39 53 49 46 43 38 32 29 28 22 17 13 9 6 7 11 15 18
66 66 67 67 70 72 72 70 67 68 64 62 59 62 69 65 62 60 57 52 55 57 54 53 44 40 37 36 31 25 20 16 11 8 8 11 14 19
69 68 69 66 69 69 65 64 61 61 64 65 59 56 61 63 64 63 57 60 61 59 58 56 49 45 42 42 33 28 22 19 15 12 11 11 13 16
74 73 73 68 68 67 65 62 58 58 62 70 71 66 64 63 65 61 66 66 62 61 63 59 54 47 45 46 35 31 28 22 18 14 13 14 16 18
74 73 72 71 70 69 64 63 59 57 58 68 74 70 67 67 69 66 70 74 68 63 67 65 56 49 47 46 40 35 31 26 21 16 14 14 16 19
71 73 72 70 70 70 66 66 61 59 55 64 71 71 71 70 70 75 75 74 68 65 64 58 56 52 49 48 42 40 37 29 23 20 17 19 19 21
69 69 70 70 70 70 67 66 62 61 56 62 72 76 75 79 84 83 79 77 63 62 61 61 57 53 51 52 42 39 31 25 22 21 24 25 25 27
78 72 70 72 69 68 65 67 66 60 61 62 73 80 83 83 85 87 85 84 68 68 57 54 56 53 48 45 39 35 27 26 25 25 27 26 28 28
71 75 75 73 69 65 64 66 62 58 62 62 70 76 81 82 83 85 86 88 83 65 67 59 55 49 45 41 38 32 28 28 27 28 25 26 31 33
72 70 73 74 73 67 64 59 56 53 56 63 69 71 71 70 69 79 84 82 71 61 68 65 62 53 46 41 38 32 29 30 28 27 26 30 34 35
76 71 70 72 73 70 73 65 61 57 58 58 66 66 65 58 61 71 78 79 72 61 68 60 65 54 48 40 37 35 31 31 29 26 26 29 33 35
76 78 68 67 70 69 75 69 65 58 56 57 61 66 62 59 63 64 64 74 72 56 63 60 52 54 37 42 40 35 27 27 27 28 28 31 37 36
68 76 75 64 67 65 67 68 59 54 56 52 47 44 43 43 48 57 66 67 65 46 50 61 53 53 33 25 35 30 28 27 25 25 28 31 34 37
64 72 84 76 68 60 55 67 58 59 58 49 46 44 42 40 46 49 52 53 54 47 39 55 38 42 39 31 23 26 23 23 27 28 28 26 27 27
60 61 70 70 64 47 42 66 51 54 50 54 51 46 43 45 47 43 40 42 41 36 37 36 32 31 30 28 25 28 25 24 25 24 24 25 26 30
51 54 55 60 47 40 35 46 56 53 48 48 49 48 45 42 39 39 41 41 37 35 35 35 33 31 29 29 27 23 21 15 17 23 24 23 23 28
63 58 54 47 43 42 49 64 56 52 46 43 46 44 41 42 43 42 39 37 38 37 32 27 24 24 24 22 20 17 16 16 18 21 24 25 23 30
57 57 56 54 52 52 56 65 56 48 43 41 40 39 39 38 40 39 39 36 31 25 23 21 23 23 19 15 14 13 13 14 16 17 23 32 29 31
59 56 57 52 52 57 59 61 54 43 39 37 37 37 36 38 41 38 34 32 27 22 22 23 21 19 16 13 11 11 14 15 14 15 22 28 39 41
44 54 47 40 45 50 52 51 46 38 33 33 35 36 39 38 36 35 33 28 25 25 24 21 19 18 12 10 9 8 14 15 19 18 23 29 37 43
42 48 29 21 26 34 40 45 44 38 34 34 36 36 34 33 33 31 28 24 24 24 23 23 19 16 12 10 8 6 9 14 18 23 28 36 42 54
31 26 15 12 16 23 29 34 37 37 37 37 36 35 34 33 32 27 22 23 25 24 25 21 18 14 11 10 11 11 8 9 15 20 20 25 36 40
30 22 16 16 11 11 16 25 30 31 31 32 32 32 32 32 28 24 23 26 27 26 23 21 20 16 14 14 15 12 13 16 21 19 13 20 26 32
Wind_Direction_500mb
292 291 287 287 285 283 278 273 272 268 267 267 254 258 256 249 243 242 231 240 215 215 209 213 210 210 212 211 215 214 216 222 235 266 306 328 336 339
293 292 291 290 287 285 283 277 271 264 262 270 265 255 256 248 240 238 225 234 212 211 213 216 215 212 212 214 216 215 219 225 238 261 289 313 326 328
293 293 291 290 289 286 283 278 270 263 261 266 263 263 252 246 237 234 227 225 216 213 216 217 215 213 212 221 219 220 226 232 243 260 276 290 299 309
297 294 293 291 288 286 282 279 272 263 261 261 259 254 248 242 235 231 222 218 216 215 217 217 216 213 215 223 220 224 228 234 241 252 270 291 302 312
295 294 293 291 289 286 282 278 273 267 258 257 258 253 244 236 229 220 216 219 213 213 216 216 214 214 218 223 222 228 233 238 241 248 265 278 293 303
295 294 293 290 287 284 283 281 277 270 261 253 252 251 242 235 227 219 208 218 212 210 212 213 212 211 216 226 223 227 232 238 251 261 276 286 295 301
290 290 289 287 285 284 280 278 276 274 265 253 249 246 235 228 224 217 213 214 212 214 213 212 209 207 210 226 225 235 240 251 266 278 282 289 299 306
293 289 287 287 286 283 279 276 273 269 264 255 250 246 242 231 224 219 211 207 205 211 212 211 209 208 213 224 222 230 238 252 261 272 280 291 299 307
292 290 288 286 286 285 281 277 272 268 262 253 251 251 246 237 229 222 219 218 214 210 211 213 212 212 212 218 226 234 247 258 266 274 285 296 304 307
296 289 286 284 284 282 279 275 269 263 259 255 252 254 252 249 239 231 225 215 211 210 209 209 213 211 213 214 229 235 243 248 255 262 280 296 299 304
298 291 284 280 280 279 277 273 271 261 259 255 245 239 237 237 233 226 218 215 209 205 206 211 209 207 209 214 217 235 234 244 248 260 278 290 296 298
300 294 286 279 277 274 272 275 274 260 246 241 236 237 238 232 226 217 219 215 213 205 207 208 207 199 200 215 218 231 229 241 247 265 280 289 290 293
299 292 287 286 279 278 275 275 271 252 243 237 234 221 215 219 220 220 216 211 209 212 210 205 205 199 198 194 208 216 224 237 254 269 276 278 281 290
295 287 287 285 288 284 261 258 255 249 240 226 225 234 230 222 213 213 213 212 214 217 215 202 203 202 208 208 206 222 232 246 254 259 264 269 285 298
299 284 291 284 277 276 266 245 239 247 245 232 234 230 212 207 209 208 208 205 202 198 194 203 215 213 220 226 223 222 227 242 256 261 273 288 296 301
302 305 295 279 268 251 234 222 235 248 248 236 229 230 225 214 200 198 208 214 210 206 208 212 217 221 219 225 231 235 244 243 252 272 283 296 306 309
307 307 282 255 244 241 227 229 232 235 239 244 239 229 218 216 211 205 204 204 210 212 210 211 214 219 219 224 232 238 245 250 267 286 295 298 310 313
298 286 265 250 244 239 237 232 231 235 245 252 240 227 219 211 208 206 212 217 221 217 207 202 211 214 216 224 233 231 237 254 278 290 299 306 310 313
292 259 253 251 245 231 231 231 231 242 254 250 233 225 216 211 215 220 218 211 203 202 208 211 213 216 210 215 222 222 229 264 276 290 299 307 313 319
282 241 247 250 246 237 234 231 236 245 251 242 228 221 222 224 222 212 206 201 200 207 211 215 214 217 215 214 211 240 267 280 286 294 300 306 318 323
264 232 244 261 269 262 251 244 246 250 250 241 235 232 229 222 214 207 201 202 209 212 213 217 218 219 215 233 255 254 258 278 293 306 317 320 326 323
231 231 246 279 294 278 261 251 246 246 246 240 233 229 223 218 213 205 198 209 214 213 216 222 225 234 250 269 271 283 278 259 275 285 304 317 312 306
259 257 261 283 283 292 275 259 253 249 241 235 229 223 218 214 208 201 204 211 213 216 220 226 233 241 247 262 280 291 311 302 294 297 302 315 315 305
Wind_Speed_850mb
62 61 64 67 70 70 70 70 65 50 65 70 68 68 67 66 65 59 53 43 39 53 49 46 43 38 32 29 28 22 17 13 9 6 7 11 15 18
66 66 67 67 70 72 72 70 67 68 64 62 59 62 69 65 62 60 57 52 55 57 54 53 44 40 37 36 31 25 20 16 11 8 8 11 14 19
69 68 69 66 69 69 65 64 61 61 64 65 59 56 61 63 64 63 57 60 61 59 58 56 49 45 42 42 33 28 22 19 15 12 11 11 13 16
74 73 73 68 68 67 65 62 58 58 62 70 71 66 64 63 65 61 66 66 62 61 63 59 54 47 45 46 35 31 28 22 18 14 13 14 16 18
74 73 72 71 70 69 64 63 59 57 58 68 74 70 67 67 69 66 70 74 68 63 67 65 56 49 47 46 40 35 31 26 21 16 14 14 16 19
71 73 72 70 70 70 66 66 61 59 55 64 71 71 71 70 70 75 75 74 68 65 64 58 56 52 49 48 42 40 37 29 23 20 17 19 19 21
69 69 70 70 70 70 67 66 62 61 56 62 72 76 75 79 84 83 79 77 63 62 61 61 57 53 51 52 42 39 31 25 22 21 24 25 25 27
78 72 70 72 69 68 65 67 66 60 61 62 73 80 83 83 85 87 85 84 68 68 57 54 56 53 48 45 39 35 27 26 25 25 27 26 28 28
71 75 75 73 69 65 64 66 62 58 62 62 70 76 81 82 83 85 86 88 83 65 67 59 55 49 45 41 38 32 28 28 27 28 25 26 31 33
72 70 73 74 73 67 64 59 56 53 56 63 69 71 71 70 69 79 84 82 71 61 68 65 62 53 46 41 38 32 29 30 28 27 26 30 34 35
76 71 70 72 73 70 73 65 61 57 58 58 66 66 65 58 61 71 78 79 72 61 68 60 65 54 48 40 37 35 31 31 29 26 26 29 33 35
76 78 68 67 70 69 75 69 65 58 56 57 61 66 62 59 63 64 64 74 72 56 63 60 52 54 37 42 40 35 27 27 27 28 28 31 37 36
68 76 75 64 67 65 67 68 59 54 56 52 47 44 43 43 48 57 66 67 65 46 50 61 53 53 33 25 35 30 28 27 25 25 28 31 34 37
64 72 84 76 68 60 55 67 58 59 58 49 46 44 42 40 46 49 52 53 54 47 39 55 38 42 39 31 23 26 23 23 27 28 28 26 27 27
60 61 70 70 64 47 42 66 51 54 50 54 51 46 43 45 47 43 40 42 41 36 37 36 32 31 30 28 25 28 25 24 25 24 24 25 26 30
51 54 55 60 47 40 35 46 56 53 48 48 49 48 45 42 39 39 41 41 37 35 35 35 33 31 29 29 27 23 21 15 17 23 24 23 23 28
63 58 54 47 43 42 49 64 56 52 46 43 46 44 41 42 43 42 39 37 38 37 32 27 24 24 24 22 20 17 16 16 18 21 24 25 23 30
57 57 56 54 52 52 56 65 56 48 43 41 40 39 39 38 40 39 39 36 31 25 23 21 23 23 19 15 14 13 13 14 16 17 23 32 29 31
59 56 57 52 52 57 59 61 54 43 39 37 37 37 36 38 41 38 34 32 27 22 22 23 21 19 16 13 11 11 14 15 14 15 22 28 39 41
44 54 47 40 45 50 52 51 46 38 33 33 35 36 39 38 36 35 33 28 25 25 24 21 19 18 12 10 9 8 14 15 19 18 23 29 37 43
42 48 29 21 26 34 40 45 44 38 34 34 36 36 34 33 33 31 28 24 24 24 23 23 19 16 12 10 8 6 9 14 18 23 28 36 42 54
31 26 15 12 16 23 29 34 37 37 37 37 36 35 34 33 32 27 22 23 25 24 25 21 18 14 11 10 11 11 8 9 15 20 20 25 36 40
30 22 16 16 11 11 16 25 30 31 31 32 32 32 32 32 28 24 23 26 27 26 23 21 20 16 14 14 15 12 13 16 21 19 13 20 26 32
Wind_Direction_850mb
292 291 287 287 285 283 278 273 272 268 267 267 254 258 256 249 243 242 231 240 215 215 209 213 210 210 212 211 215 214 216 222 235 266 306 328 336 339
293 292 291 290 287 285 283 277 271 264 262 270 265 255 256 248 240 238 225 234 212 211 213 216 215 212 212 214 216 215 219 225 238 261 289 313 326 328
293 293 291 290 289 286 283 278 270 263 261 266 263 263 252 246 237 234 227 225 216 213 216 217 215 213 212 221 219 220 226 232 243 260 276 290 299 309
297 294 293 291 288 286 282 279 272 263 261 261 259 254 248 242 235 231 222 218 216 215 217 217 216 213 215 223 220 224 228 234 241 252 270 291 302 312
295 294 293 291 289 286 282 278 273 267 258 257 258 253 244 236 229 220 216 219 213 213 216 216 214 214 218 223 222 228 233 238 241 248 265 278 293 303
295 294 293 290 287 284 283 281 277 270 261 253 252 251 242 235 227 219 208 218 212 210 212 213 212 211 216 226 223 227 232 238 251 261 276 286 295 301
290 290 289 287 285 284 280 278 276 274 265 253 249 246 235 228 224 217 213 214 212 214 213 212 209 207 210 226 225 235 240 251 266 278 282 289 299 306
293 289 287 287 286 283 279 276 273 269 264 255 250 246 242 231 224 219 211 207 205 211 212 211 209 208 213 224 222 230 238 252 261 272 280 291 299 307
292 290 288 286 286 285 281 277 272 268 262 253 251 251 246 237 229 222 219 218 214 210 211 213 212 212 212 218 226 234 247 258 266 274 285 296 304 307
296 289 286 284 284 282 279 275 269 263 259 255 252 254 252 249 239 231 225 215 211 210 209 209 213 211 213 214 229 235 243 248 255 262 280 296 299 304
298 291 284 280 280 279 277 273 271 261 259 255 245 239 237 237 233 226 218 215 209 205 206 211 209 207 209 214 217 235 234 244 248 260 278 290 296 298
300 294 286 279 277 274 272 275 274 260 246 241 236 237 238 232 226 217 219 215 213 205 207 208 207 199 200 215 218 231 229 241 247 265 280 289 290 293
299 292 287 286 279 278 275 275 271 252 243 237 234 221 215 219 220 220 216 211 209 212 210 205 205 199 198 194 208 216 224 237 254 269 276 278 281 290
295 287 287 285 288 284 261 258 255 249 240 226 225 234 230 222 213 213 213 212 214 217 215 202 203 202 208 208 206 222 232 246 254 259 264 269 285 298
299 284 291 284 277 276 266 245 239 247 245 232 234 230 212 207 209 208 208 205 202 198 194 203 215 213 220 226 223 222 227 242 256 261 273 288 296 301
302 305 295 279 268 251 234 222 235 248 248 236 229 230 225 214 200 198 208 214 210 206 208 212 217 221 219 225 231 235 244 243 252 272 283 296 306 309
307 307 282 255 244 241 227 229 232 235 239 244 239 229 218 216 211 205 204 204 210 212 210 211 214 219 219 224 232 238 245 250 267 286 295 298 310 313
298 286 265 250 244 239 237 232 231 235 245 252 240 227 219 211 208 206 212 217 221 217 207 202 211 214 216 224 233 231 237 254 278 290 299 306 310 313
292 259 253 251 245 231 231 231 231 242 254 250 233 225 216 211 215 220 218 211 203 202 208 211 213 216 210 215 222 222 229 264 276 290 299 307 313 319
282 241 247 250 246 237 234 231 236 245 251 242 228 221 222 224 222 212 206 201 200 207 211 215 214 217 215 214 211 240 267 280 286 294 300 306 318 323
264 232 244 261 269 262 251 244 246 250 250 241 235 232 229 222 214 207 201 202 209 212 213 217 218 219 215 233 255 254 258 278 293 306 317 320 326 323
231 231 246 279 294 278 261 251 246 246 246 240 233 229 223 218 213 205 198 209 214 213 216 222 225 234 250 269 271 283 278 259 275 285 304 317 312 306
259 257 261 283 283 292 275 259 253 249 241 235 229 223 218 214 208 201 204 211 213 216 220 226 233 241 247 262 280 291 311 302 294 297 302 315 315 305